Hourly Data Report for July 21, 2021

MANIWAKI AIRPORT
QUEBEC
Current Station Operator: ECCC - MSC

46°16'29.000" N
75°59'31.000" W
199.70 m
7034482
71721
WMJ

Download Data

Hourly Data (July 2021)
Hourly Data Report for July 21, 2021
TIME
LST
Temp Definition
°C
Dew Point Definition
°C
Rel Hum Definition
%
Precip. Amount Definition
mm

Wind Dir Definition
10's deg

Wind Spd Definition
km/h
Visibility Definition
km
Stn Press Definition
kPa
Hmdx Definition


Wind Chill Definition


Weather Definition


00:00 15.1 13.7 91 0.0 36 9   99.01     LegendNANA
01:00 14.1 12.8 92 0.0 35 7   99.01     LegendNANA
02:00 13.2 11.8 91 0.0 35 8   99.00     LegendNANA
03:00 12.6 11.1 91 0.0 35 8   98.99     LegendNANA
04:00 11.9 10.4 91 0.0 35 9   99.02     LegendNANA
05:00 11.3 9.9 91 0.0 36 5   99.06     LegendNANA
06:00 12.6 10.0 84 0.0 36 13   99.11     LegendNANA
07:00 13.9 10.5 80 0.0 35 13   99.15     LegendNANA
08:00 15.9 11.9 77 0.0 36 13   99.19     LegendNANA
09:00 17.5 11.9 70 0.0 36 14   99.20     LegendNANA
10:00 19.2 13.2 68 0.0 32 12   99.22     LegendNANA
11:00 20.6 12.0 58 0.0 1 13   99.23     LegendNANA
12:00 22.5 12.6 54 0.0 1 13   99.23 25   LegendNANA
13:00 23.0 10.4 45 0.0 36 13   99.20     LegendNANA
14:00 24.0 10.1 41 0.0 35 12   99.17 25   LegendNANA
15:00 24.4 10.4 41 0.0 35 19   99.16 26   LegendNANA
16:00 23.6 9.3 40 0.0 33 14   99.16 25   LegendNANA
17:00 23.4 9.8 42 0.0 34 10   99.16 25   LegendNANA
18:00 22.4 10.1 45 0.0 35 13   99.18     LegendNANA
19:00 20.7 9.7 49 0.0 33 8   99.23     LegendNANA
20:00 18.8 10.2 58 0.0 30 7   99.28     LegendNANA
21:00 17.8 10.0 60 0.0 32 9   99.32     LegendNANA
22:00 16.7 10.4 67 0.0 30 8   99.36     LegendNANA
23:00 15.5 9.9 69 0.0 34 6   99.38     LegendNANA

Notes on Data Quality.

Legend

  • E = Estimated
  • M = Missing
  • NA = Not Available*
  • [empty] = Indicates an unobserved value
Date modified: